This is the latest recevied weather packets stored in our database for station/object NO4D. If no packets are shown the sender has not sent any weather packets the latest 10 day(s).
| Time | Temp. | Humidity | Pressure | Rain* | Wind** | Luminosity | Snow |
|---|---|---|---|---|---|---|---|
| 1777812462 | 12.78° C | 62% | 1020.7 hPa | 0 mm | - | 233 W/m² | - |
| 1777812161 | 12.22° C | 63% | 1020.8 hPa | 0 mm | - | 181 W/m² | - |
| 1777811858 | 12.22° C | 64% | 1020.8 hPa | 0 mm | - | 173 W/m² | - |
| 1777811557 | 11.67° C | 64% | 1020.7 hPa | 0 mm | - | 172 W/m² | - |
| 1777811252 | 11.67° C | 64% | 1020.8 hPa | 0 mm | - | 161 W/m² | - |
| 1777810950 | 11.67° C | 64% | 1020.7 hPa | 0 mm | - | 114 W/m² | - |
| 1777810646 | 11.11° C | 64% | 1020.7 hPa | 0 mm | - | 96 W/m² | - |
| 1777810343 | 11.11° C | 66% | 1020.6 hPa | 0 mm | - | 72 W/m² | - |
| 1777810038 | 11.11° C | 66% | 1020.5 hPa | 0 mm | - | 109 W/m² | - |
| 1777809737 | 10.56° C | 66% | 1020.4 hPa | 0 mm | - | 106 W/m² | - |
| 1777809434 | 10° C | 68% | 1020.3 hPa | 0 mm | - | 96 W/m² | - |
| 1777809132 | 9.44° C | 69% | 1020.3 hPa | 0 mm | - | 64 W/m² | - |
| 1777808830 | 9.44° C | 70% | 1020.4 hPa | 0 mm | - | 45 W/m² | - |
| 1777808526 | 9.44° C | 68% | 1020.2 hPa | 0 mm | - | 38 W/m² | - |
| 1777808223 | 9.44° C | 68% | 1020.3 hPa | 0 mm | - | 36 W/m² | - |
| 1777807922 | 9.44° C | 68% | 1020.2 hPa | 0 mm | - | 32 W/m² | - |
| 1777807619 | 9.44° C | 68% | 1020 hPa | 0 mm | - | 32 W/m² | - |
| 1777807316 | 9.44° C | 67% | 1019.9 hPa | 0 mm | - | 29 W/m² | - |
| 1777807012 | 9.44° C | 67% | 1020 hPa | 0 mm | - | 26 W/m² | - |
| 1777806709 | 9.44° C | 67% | 1020 hPa | 0 mm | - | 23 W/m² | - |
| 1777806404 | 9.44° C | 67% | 1020.1 hPa | 0 mm | - | 21 W/m² | - |
| 1777806102 | 9.44° C | 67% | 1019.9 hPa | 0 mm | - | 17 W/m² | - |
| 1777805798 | 9.44° C | 67% | 1019.8 hPa | 0 mm | - | 13 W/m² | - |
| 1777805495 | 9.44° C | 67% | 1019.7 hPa | 0 mm | - | 11 W/m² | - |
| 1777805193 | 8.89° C | 67% | 1019.7 hPa | 0 mm | - | 7 W/m² | - |
* Rain latest hour (hover to see other rain measurements)
** Current wind speed in m/s (hover to see current wind gust speed)